Terug naar catalogus

STARLINK-37843

ActiefCommunicatieSSO
NORAD 69501·PAYLOAD·🇺🇸 United States

Gelanceerd Jun 11, 2026 vanaf Vandenberg Space Force Base

Loading…

Volgende Passages (komende 24 uur)

TLE

VersSource: CelesTrak SupGP

Epoch: Sep 15, 2026, 03:19 UTC

1 69501C 26131Z   26258.13868056 -.00050665  00000+0 -15728-2 0  2580
2 69501  97.2830 279.1533 0001282  93.3376 151.7852 15.33464068    16

Volg STARLINK-37843 in realtime met AllMySat

Download on the App Store